Location: Chochol
(49.7771°N, 14.9780°E)
Time: 00:20:42
(UTC+00:00)

Cosmos 2219 Rocket - Pass Details

Date: 09 April 2020
Orbit: 829 x 845 km, 71.0° (Epoch: 04 June)

Event Time Altitude Azimuth Distance (km) Brightness Sun altitude
Rises 22:25:51 0° 334° (NNW) 3,390 6.4 -31.7°
Reaches altitude 10° 22:28:37 10° 345° (NNW) 2,450 5.5 -31.8°
Maximum altitude 22:33:30 30° 46° (NE) 1,460 3.6 -31.9°
Enters shadow 22:34:15 29° 60° (ENE) 1,489 3.6 -31.9°
